Location: Chiroubles
(46.1812°N, 4.6660°E)
Time: 15:32:59
(UTC+00:00)

Vanguard 3 - Visible Passes

Search period start: 24 November 2020 00:00
Search period end: 04 December 2020 00:00
Orbit: 508 x 3262 km, 33.3° (Epoch: 24 November)

Date Brightness Start Highest point End Pass type
(mag) Time Alt. Az. Time Alt. Az. Time Alt. Az.
24 Nov 10.4 02:22:33 18° SSE 02:22:33 18° SSE 02:26:40 10° SE visible
24 Nov 10.4 04:27:08 13° SW 04:30:00 14° SSW 04:36:02 10° S visible
25 Nov 10.3 03:17:24 17° S 03:17:24 17° S 03:22:48 10° SSE visible
26 Nov 10.7 02:07:41 11° SSE 02:07:41 11° SSE 02:08:13 10° SSE visible
27 Nov 10.6 03:02:32 11° S 03:02:32 11° S 03:03:12 10° S visible
